Overview Statistics Trail Chart Weather Telemetry Raw packets
 

This is the latest recevied weather packets stored in our database for station/object KB1RMA-4. If no packets are shown the sender has not sent any weather packets the latest 10 day(s).

<< 86 87 88 89 90 91 92 >>
Time Temp. Humidity Pressure Rain* Wind** Luminosity Snow
1788002546 16.11° C 67% 1021.7 hPa 0 mm - 47 W/m² -
1788002242 16.11° C 68% 1021.9 hPa 0 mm - 34 W/m² -
1788001941 16.11° C 67% 1022 hPa 0 mm - 33 W/m² -
1788001637 16.11° C 68% 1021.8 hPa 0 mm - 39 W/m² -
1788001336 16.11° C 68% 1021.8 hPa 0 mm - 40 W/m² -
1788001031 16.11° C 68% 1021.7 hPa 0 mm - 30 W/m² -
1788000726 16.11° C 68% 1021.8 hPa 0 mm - 26 W/m² -
1788000422 15.56° C 68% 1021.5 hPa 0 mm - 22 W/m² -
1788000121 16.11° C 68% 1021.5 hPa 0 mm - 19 W/m² -
1787999817 16.11° C 68% 1021.5 hPa 0 mm - 17 W/m² -
1787999514 16.11° C 68% 1021.7 hPa 0 mm - 13 W/m² -
1787999210 16.11° C 68% 1021.5 hPa 0 mm - 11 W/m² -
1787998904 16.11° C 67% 1021.4 hPa 0 mm - 6 W/m² -
1787998604 16.11° C 68% 1021.4 hPa 0 mm - 5 W/m² -
1787998303 16.11° C 68% 1021.3 hPa 0 mm - 2 W/m² -
1787997998 16.11° C 68% 1021 hPa 0 mm - 1 W/m² -
1787997692 16.11° C 67% 1020.8 hPa 0 mm - 0 W/m² -
1787997390 16.11° C 67% 1021.1 hPa 0 mm - 0 W/m² -
1787997096 16.11° C 67% 1021.1 hPa 0 mm - 0 W/m² -
1787996785 16.67° C 67% 1020.8 hPa 0 mm - 0 W/m² -
1787996480 16.67° C 67% 1020.9 hPa 0 mm - 0 W/m² -
1787996175 16.67° C 67% 1020.5 hPa 0 mm - 0 W/m² -
1787995874 16.67° C 66% 1020.5 hPa 0 mm - 0 W/m² -
1787995570 16.67° C 67% 1020.3 hPa 0 mm - 0 W/m² -
1787995266 17.22° C 67% 1020.6 hPa 0 mm - 0 W/m² -

* Rain latest hour (hover to see other rain measurements)
** Current wind speed in m/s (hover to see current wind gust speed)